ONEWEB-0186, 48229

Orbit data source: Space-Track

ONEWEB-0186, 48229 is a payload satellite owned by One Web (NAA) (UK) in LEO that was launched on Sun, 25 Apr 2021 UTC via a SOYUZ-2-1B launch vehicle from the Vostochny Cosmodrome (VOSTO). Payload-class satellites include a variety of spacecraft equipped with specific instruments for various scientific and technological missions. These include communications satellites like Starlink; space stations such as the ISS; scientific satellites like the Hubble; Earth observation satellites from companies like Planet Labs, Umbra, and HawkEye 360; GPS; miniature CubeSats for education and research; and military/defense satellites.

Loading next visibility...
Identifier
48229, 2021-031V
Orbit
LEO
Country
Flag of UKUK
Related business
Manufacturer
One Web
Mission
Operational Commercial Communications
Bus & Motor
ARROW, Unknown motor
Mass
148 kg wet, ~140 kg dry
Launch date (UTC)
2021-04-25 (5 years ago)
Launch vehicle
SOYUZ-2-1B
Launch site
Vostochny Cosmodrome (VOSTO)
Object type
Payload
Rocket body
Debris
Shape & HBR
Trap Box + 2 Pan, 6.7 m
Radar Cross Section
3.464 m², Medium (>0.1 m² and < 1m²)

Expand to show TLE details & history
Last TLE update: 19 hours ago

TLE from 19 hours ago
0 ONEWEB-0186
1 48229U 21031V   26094.13064537  .00000100  00000-0  23626-3 0  9995
2 48229  87.8942 304.4762 0001638  82.4860 277.6455 13.14501879238656
Epoch: 2026-04-04T03:08Z
TLE epoch observation values (Epoch: 2026-04-04T03:08:07.759Z)
Latitude
-0.00012°
Longitude
64.98903°
Altitude
1,208.523 km
Speed
7.25 km/s
True Right ascension
20h 17m 54s
True Declination
0° 00' 00"
Sunlit
Object was in daylight at epoch
Visualization orbit readout
Latitude
Unknown
Longitude
Unknown
Altitude
Unknown
Speed
Unknown
Apparent Right ascension
Unknown
Apparent Declination
Unknown
Sunlit
N/A
Visualization observer readout
Local Sidereal Time
04:09:23
Azimuth
Unknown
Elevation
Unknown
Doppler factor
Unknown
Orbital elements
Apogee altitude
1,204.149 km
Perigee altitude
1,201.666 km
Semi-major axis
7,581.045 km
Eccentricity
0.00016
Inclination
87.8942°
RAAN
304.4762°
Arg. of periapsis
82.486°
True anomaly
277.6269°
Mean anomaly
277.6455°
Eccentric anomaly
277.6362°
Mean motion
3.28813 °/min
Orbital period
109.48 mins
BSTAR
0.00023626
Loading maneuver chart data...
Computing Atmospheric mass density...
Loading historical data...
Loading historical data...
Loading historical data...
Loading historical data...
Loading historical data...
Loading historical data...
Loading historical data...

Documentation

Showing up to 5 results
|